Location: Hac?musa Deresi
(39.1694°N, 32.2508°E)
Time: 11:50:22
(UTC+00:00)

Cosmos 44 - Pass Details

Date: 22 April 2026
Orbit: 568 x 782 km, 65.1° (Epoch: 21 May)

Event Time Altitude Azimuth Distance (km) Brightness Sun altitude
Rises 17:22:45 0° 197° (SSW) 3,014 6.5 -9.5°
Reaches altitude 10° 17:25:02 10° 192° (SSW) 2,138 5.7 -9.9°
Maximum altitude 17:29:48 54° 116° (ESE) 875 3.5 -10.7°
Drops below altitude 10° 17:34:53 10° 40° (NE) 2,277 5.8 -11.6°
Sets 17:37:23 0° 36° (NE) 3,229 6.6 -12.0°
